Location: Prague
(50.0830°N, 14.4670°E)
Time: 09:16:14
(UTC+01:00)

XW-2F - Pass Details

Date: 07 December 2021
Orbit: 494 x 515 km, 97.5° (Epoch: 18 January)

Event Time Altitude Azimuth Distance (km) Brightness Sun altitude
Rises 17:50:48 0° 186° (S) 2,607 ? -16.7°
Reaches altitude 10° 17:53:00 10° 196° (SSW) 1,731 ? -17.1°
Maximum altitude 17:56:27 35° 263° (W) 847 ? -17.6°
Drops below altitude 10° 17:59:57 10° 331° (NNW) 1,756 ? -18.2°
Sets 18:02:12 0° 340° (NNW) 2,651 ? -18.5°
